{"data":{"norad_id":63388,"intl_designator":"2025-063AB","name":"STARLINK-33629","alt_names":[],"object_type":"PAYLOAD","status":"ACTIVE","operator":null,"country":"US","launch_date":"2025-03-26","launch_site_code":"AFWTR","launch_vehicle":null,"mission":null,"orbit_class":"UNKNOWN","rcs_meters":null,"size_class":null,"mass_kg":null,"dimensions":null,"purposes":["comms"],"wikipedia_slug":null,"has_3d_model":false,"image_url":null,"decayed_at":null,"tle_current":{"epoch":"2026-09-20T06:31:33.966624Z","epoch_age_seconds":178603,"freshness":"STALE","line1":"1 63388U 25063AB  26263.27192091  .00014016  00000+0  42517-3 0  9997","line2":"2 63388  53.1584 222.7728 0001403 112.1568 247.9583 15.34401068 84639","mean_motion":15.34401068,"eccentricity":0.0001403,"inclination_deg":53.1584,"raan_deg":222.7728,"arg_perigee_deg":112.1568,"mean_anomaly_deg":247.9583,"bstar":0.00042517,"rev_number":8463,"period_min":93.847692759818,"perigee_km":461.74029644753,"apogee_km":463.65983532822,"semimajor_km":6840.8370658879,"source":"CELESTRAK","updated_at":"2026-09-21T09:00:34.977247Z"}}}